Location: Carabito
(9.8355°N, 67.9249°W)
Time: 21:20:30
(UTC+00:00)

ARIANE 5 DEB (SYLDA) - Pass Details

Date: 23 May 2024
Orbit: 601 x 39325 km, 6.3° (Epoch: 24 June)

Event Time Altitude Azimuth Distance (km) Brightness Sun altitude
Exits shadow 08:57:36 28° 212° (SSW) 1,163 4.5 -17.2°
Maximum altitude 08:58:53 37° 168° (SSE) 1,036 4.6 -16.9°
Drops below altitude 10° 09:04:23 10° 99° (E) 3,265 8.1 -15.7°
Sets 09:09:46 0° 92° (E) 5,864 9.7 -14.5°
